| time (UTC) | temp F | wind direction | speed knots | gust knots | rain 1hr in | rain 24hr in | rain mn in | humidity % | barometer mb |
| 20260506051122 | 50 | 94 | 0.9 | 2.6 | 0.00 | 0.17 | 0.17 | 72 | 1010.1 |
| 20260506050122 | 50 | 341 | 0.0 | 0.9 | 0.00 | 0.17 | 0.17 | 70 | 1009.9 |
| 20260506045122 | 50 | 314 | 0.0 | 0.9 | 0.00 | 0.17 | 0.17 | 69 | 1009.7 |
| 20260506044122 | 50 | 0 | 0.0 | 0.0 | 0.00 | 0.17 | 0.17 | 68 | 1009.9 |
| 20260506043122 | 51 | 315 | 0.0 | 0.9 | 0.00 | 0.17 | 0.17 | 68 | 1009.9 |
| 20260506042122 | 51 | 0 | 0.0 | 2.6 | 0.00 | 0.17 | 0.17 | 67 | 1009.8 |
| 20260506041123 | 51 | 34 | 0.0 | 3.5 | 0.00 | 0.17 | 0.17 | 69 | 1009.7 |
| 20260506040122 | 50 | 18 | 2.6 | 4.3 | 0.00 | 0.17 | 0.17 | 73 | 1009.7 |
| 20260506035122 | 49 | 338 | 2.6 | 7.0 | 0.00 | 0.17 | 0.17 | 72 | 1009.7 |
| 20260506034122 | 50 | 302 | 0.9 | 2.6 | 0.00 | 0.17 | 0.17 | 71 | 1009.6 |
| 20260506033143 | 50 | 278 | 0.0 | 3.5 | 0.00 | 0.17 | 0.17 | 70 | 1009.2 |
| 20260506032122 | 51 | 0 | 0.0 | 0.0 | 0.00 | 0.17 | 0.17 | 69 | 1009.1 |
| 20260506031122 | 51 | 277 | 0.0 | 1.7 | 0.00 | 0.17 | 0.17 | 68 | 1009.1 |
| 20260506030122 | 51 | 352 | 0.9 | 4.3 | 0.00 | 0.17 | 0.17 | 69 | 1008.9 |
| 20260506025143 | 51 | 338 | 0.9 | 4.3 | 0.00 | 0.17 | 0.17 | 70 | 1008.8 |
| 20260506024122 | 52 | 339 | 2.6 | 7.0 | 0.00 | 0.17 | 0.17 | 71 | 1008.9 |
| 20260506023122 | 52 | 282 | 0.0 | 2.6 | 0.00 | 0.17 | 0.17 | 70 | 1008.7 |
| 20260506022122 | 53 | 0 | 0.0 | 1.7 | 0.00 | 0.17 | 0.17 | 70 | 1008.5 |
| 20260506021122 | 53 | 0 | 0.0 | 0.0 | 0.00 | 0.17 | 0.17 | 69 | 1008.3 |
| 20260506020122 | 54 | 0 | 0.0 | 0.0 | 0.00 | 0.17 | 0.17 | 68 | 1008.3 |
| 20260506015123 | 54 | 0 | 0.0 | 0.0 | 0.00 | 0.17 | 0.17 | 68 | 1008.2 |
| 20260506014122 | 55 | 273 | 0.0 | 0.9 | 0.00 | 0.17 | 0.17 | 68 | 1008.3 |
| 20260506013122 | 56 | 269 | 0.0 | 1.7 | 0.00 | 0.17 | 0.17 | 66 | 1008.2 |
| 20260506012122 | 57 | 257 | 0.9 | 3.5 | 0.00 | 0.17 | 0.17 | 65 | 1008.1 |
| 20260506011143 | 56 | 119 | 0.0 | 0.9 | 0.00 | 0.17 | 0.17 | 62 | 1008.0 |
| 20260506010122 | 56 | 119 | 0.0 | 2.6 | 0.00 | 0.17 | 0.17 | 62 | 1008.1 |
| 20260506005122 | 56 | 121 | 0.0 | 0.9 | 0.00 | 0.17 | 0.17 | 62 | 1008.2 |
| 20260506004122 | 56 | 121 | 0.9 | 3.5 | 0.00 | 0.17 | 0.17 | 61 | 1008.0 |
| 20260506003123 | 56 | 81 | 0.0 | 2.6 | 0.00 | 0.17 | 0.17 | 61 | 1008.0 |
| 20260506002122 | 56 | 147 | 0.0 | 1.7 | 0.00 | 0.17 | 0.17 | 60 | 1008.2 |
| 20260506001122 | 56 | 118 | 0.9 | 4.3 | 0.00 | 0.17 | 0.17 | 60 | 1008.1 |
| 20260506000122 | 56 | 106 | 1.7 | 6.1 | 0.00 | 0.17 | 0.17 | 61 | 1008.2 |
| 20260505235122 | 56 | 147 | 1.7 | 5.2 | 0.00 | 0.17 | 0.17 | 62 | 1008.2 |
| 20260505234143 | 56 | 181 | 0.0 | 2.6 | 0.00 | 0.17 | 0.17 | 61 | 1008.3 |
| 20260505233122 | 56 | 163 | 0.9 | 4.3 | 0.00 | 0.17 | 0.17 | 61 | 1008.4 |
| 20260505232122 | 56 | 183 | 0.0 | 4.3 | 0.00 | 0.17 | 0.17 | 62 | 1008.5 |
| 20260505231122 | 56 | 155 | 1.7 | 5.2 | 0.00 | 0.17 | 0.17 | 62 | 1008.6 |
| 20260505230122 | 56 | 159 | 1.7 | 5.2 | 0.00 | 0.17 | 0.17 | 61 | 1008.7 |
| 20260505225122 | 56 | 178 | 1.7 | 5.2 | 0.00 | 0.17 | 0.17 | 62 | 1008.8 |
| 20260505224123 | 56 | 77 | 0.9 | 3.5 | 0.00 | 0.17 | 0.17 | 60 | 1008.9 |
| 20260505223122 | 57 | 117 | 0.9 | 5.2 | 0.00 | 0.17 | 0.17 | 59 | 1009.0 |
| 20260505222143 | 57 | 188 | 1.7 | 6.1 | 0.00 | 0.17 | 0.17 | 62 | 1009.1 |
| 20260505221123 | 56 | 149 | 1.7 | 5.2 | 0.00 | 0.17 | 0.17 | 63 | 1009.3 |
| 20260505220143 | 56 | 157 | 2.6 | 6.1 | 0.00 | 0.17 | 0.17 | 63 | 1009.5 |
| 20260505215122 | 56 | 184 | 0.9 | 2.6 | 0.00 | 0.17 | 0.17 | 65 | 1009.7 |
| 20260505214143 | 55 | 184 | 2.6 | 7.0 | 0.00 | 0.17 | 0.17 | 67 | 1009.9 |
| 20260505213122 | 54 | 169 | 1.7 | 7.0 | 0.00 | 0.17 | 0.17 | 70 | 1010.0 |
| 20260505212122 | 53 | 165 | 1.7 | 6.1 | 0.00 | 0.17 | 0.17 | 72 | 1010.2 |
| 20260505211122 | 52 | 138 | 0.9 | 3.5 | 0.00 | 0.17 | 0.17 | 76 | 1010.2 |
| 20260505210123 | 51 | 103 | 1.7 | 5.2 | 0.00 | 0.17 | 0.17 | 77 | 1010.4 |
| 20260505205122 | 51 | 123 | 1.7 | 7.0 | 0.00 | 0.17 | 0.17 | 80 | 1010.4 |
| 20260505204122 | 51 | 116 | 1.7 | 7.0 | 0.01 | 0.17 | 0.17 | 81 | 1010.4 |
| 20260505203143 | 50 | 111 | 2.6 | 6.1 | 0.05 | 0.17 | 0.17 | 83 | 1010.4 |
| 20260505202122 | 49 | 108 | 1.7 | 4.3 | 0.07 | 0.17 | 0.17 | 83 | 1010.5 |
| 20260505201122 | 48 | 127 | 0.9 | 2.6 | 0.09 | 0.17 | 0.17 | 83 | 1010.7 |
| 20260505200122 | 47 | 199 | 0.0 | 0.9 | 0.09 | 0.17 | 0.17 | 82 | 1010.6 |
| 20260505195122 | 47 | 202 | 0.9 | 3.5 | 0.10 | 0.17 | 0.17 | 81 | 1010.7 |
| 20260505194122 | 47 | 264 | 0.9 | 1.7 | 0.07 | 0.15 | 0.15 | 80 | 1010.8 |
| 20260505193122 | 47 | 274 | 2.6 | 6.1 | 0.05 | 0.11 | 0.11 | 79 | 1011.1 |
| 20260505192122 | 48 | 278 | 1.7 | 2.6 | 0.01 | 0.09 | 0.09 | 77 | 1011.1 |
| 20260505191122 | 48 | 0 | 0.0 | 0.0 | 0.00 | 0.07 | 0.07 | 77 | 1010.9 |
| 20260505190122 | 48 | 125 | 0.0 | 1.7 | 0.01 | 0.07 | 0.07 | 77 | 1010.7 |
| 20260505185122 | 48 | 123 | 0.0 | 1.7 | 0.00 | 0.07 | 0.07 | 78 | 1010.6 |
| 20260505184122 | 49 | 123 | 1.7 | 6.1 | 0.00 | 0.07 | 0.07 | 78 | 1010.4 |
| 20260505183143 | 49 | 137 | 2.6 | 7.8 | 0.00 | 0.07 | 0.07 | 79 | 1010.3 |
| 20260505182122 | 49 | 137 | 1.7 | 7.0 | 0.01 | 0.07 | 0.07 | 79 | 1010.2 |
| 20260505181144 | 49 | 162 | 2.6 | 7.0 | 0.01 | 0.07 | 0.07 | 78 | 1010.2 |
| 20260505180122 | 49 | 171 | 2.6 | 5.2 | 0.01 | 0.05 | 0.05 | 79 | 1010.4 |
| 20260505175122 | 49 | 186 | 2.6 | 7.0 | 0.01 | 0.05 | 0.05 | 78 | 1010.3 |
| 20260505174122 | 49 | 160 | 0.9 | 7.0 | 0.01 | 0.05 | 0.05 | 78 | 1010.3 |
| 20260505173122 | 48 | 358 | 0.9 | 3.5 | 0.01 | 0.05 | 0.05 | 78 | 1010.2 |
| 20260505172122 | 48 | 9 | 2.6 | 6.1 | 0.00 | 0.05 | 0.05 | 77 | 1010.2 |
| 20260505171122 | 48 | 14 | 3.5 | 8.7 | 0.00 | 0.05 | 0.05 | 76 | 1010.2 |
| 20260505170144 | 49 | 355 | 3.5 | 7.8 | 0.01 | 0.03 | 0.03 | 76 | 1010.1 |
| 20260505165122 | 49 | 328 | 0.9 | 7.0 | 0.02 | 0.03 | 0.03 | 74 | 1009.9 |
| 20260505164122 | 49 | 278 | 0.9 | 3.5 | 0.03 | 0.03 | 0.03 | 76 | 1009.8 |
| 20260505163122 | 49 | 276 | 0.9 | 5.2 | 0.03 | 0.03 | 0.03 | 76 | 1009.7 |
| 20260505162122 | 49 | 251 | 1.7 | 3.5 | 0.03 | 0.03 | 0.03 | 77 | 1009.7 |
| 20260505161122 | 50 | 288 | 0.9 | 2.6 | 0.02 | 0.02 | 0.02 | 78 | 1009.8 |
| 20260505160122 | 50 | 345 | 0.0 | 2.6 | 0.01 | 0.01 | 0.01 | 77 | 1009.6 |
| 20260505153122 | 50 | 0 | 0.0 | 0.0 | 0.00 | 0.00 | 0.00 | 74 | 1009.1 |
| 20260505152122 | 50 | 0 | 0.0 | 0.0 | 0.00 | 0.00 | 0.00 | 74 | 1009.0 |
| 20260505151143 | 50 | 0 | 0.0 | 0.0 | 0.00 | 0.00 | 0.00 | 73 | 1009.0 |
| 20260505150122 | 49 | 0 | 0.0 | 0.0 | 0.00 | 0.00 | 0.00 | 73 | 1009.0 |
| 20260505140122 | 48 | 0 | 0.0 | 0.0 | 0.00 | 0.00 | 0.00 | 73 | 1008.8 |
| 20260505130122 | 48 | 240 | 0.0 | 0.9 | 0.00 | 0.00 | 0.00 | 72 | 1008.3 |
| 20260505124122 | 48 | 0 | 0.0 | 0.0 | 0.00 | 0.00 | 0.00 | 70 | 1008.2 |
| 20260505123122 | 48 | 0 | 0.0 | 0.0 | 0.00 | 0.00 | 0.00 | 70 | 1008.2 |
| 20260505122122 | 48 | 240 | 0.9 | 2.6 | 0.00 | 0.00 | 0.00 | 70 | 1008.2 |
| 20260505121143 | 49 | 239 | 0.0 | 2.6 | 0.00 | 0.00 | 0.00 | 69 | 1008.2 |
| 20260505120122 | 49 | 0 | 0.0 | 0.0 | 0.00 | 0.00 | 0.00 | 68 | 1008.1 |
| 20260505115122 | 49 | 0 | 0.0 | 0.0 | 0.00 | 0.00 | 0.00 | 67 | 1008.0 |
| 20260505114122 | 49 | 130 | 0.9 | 1.7 | 0.00 | 0.00 | 0.00 | 67 | 1007.9 |
| 20260505113122 | 49 | 130 | 0.9 | 1.7 | 0.00 | 0.00 | 0.00 | 67 | 1007.8 |
| 20260505112143 | 49 | 130 | 0.9 | 2.6 | 0.00 | 0.00 | 0.00 | 66 | 1007.8 |
| 20260505111122 | 49 | 130 | 0.9 | 2.6 | 0.00 | 0.00 | 0.00 | 66 | 1007.8 |
| 20260505110122 | 50 | 0 | 0.0 | 0.0 | 0.00 | 0.00 | 0.00 | 64 | 1007.9 |
| 20260505102122 | 50 | 152 | 0.0 | 1.7 | 0.00 | 0.00 | 0.00 | 62 | 1007.8 |
| 20260505101122 | 50 | 151 | 0.0 | 1.7 | 0.00 | 0.00 | 0.00 | 62 | 1007.9 |
| 20260505100122 | 51 | 151 | 0.0 | 1.7 | 0.00 | 0.00 | 0.00 | 62 | 1007.9 |
| 20260505095122 | 51 | 157 | 0.0 | 1.7 | 0.00 | 0.00 | 0.00 | 61 | 1007.9 |
| 20260505094122 | 51 | 156 | 0.9 | 3.5 | 0.00 | 0.00 | 0.00 | 60 | 1007.9 |
| 20260505093122 | 52 | 126 | 1.7 | 2.6 | 0.00 | 0.00 | 0.00 | 59 | 1007.8 |
| 20260505092122 | 52 | 126 | 0.0 | 2.6 | 0.00 | 0.00 | 0.00 | 58 | 1007.9 |
| 20260505091122 | 53 | 122 | 0.9 | 2.6 | 0.00 | 0.00 | 0.00 | 57 | 1007.8 |
| 20260505090122 | 53 | 157 | 0.9 | 2.6 | 0.00 | 0.00 | 0.00 | 57 | 1007.8 |
| 20260505085122 | 54 | 37 | 1.7 | 5.2 | 0.00 | 0.00 | 0.00 | 56 | 1007.9 |
| 20260505084122 | 54 | 5 | 2.6 | 5.2 | 0.00 | 0.00 | 0.00 | 56 | 1008.0 |
| 20260505083122 | 55 | 7 | 1.7 | 3.5 | 0.00 | 0.00 | 0.00 | 56 | 1007.9 |
| 20260505082122 | 55 | 348 | 2.6 | 7.0 | 0.00 | 0.00 | 0.00 | 55 | 1008.0 |
| 20260505081122 | 55 | 357 | 3.5 | 7.8 | 0.00 | 0.00 | 0.00 | 55 | 1008.1 |
| 20260505080122 | 56 | 339 | 2.6 | 7.0 | 0.00 | 0.00 | 0.00 | 55 | 1008.2 |
| 20260505075122 | 56 | 334 | 1.7 | 5.2 | 0.00 | 0.00 | 0.00 | 54 | 1008.2 |
| 20260505074122 | 56 | 350 | 3.5 | 9.6 | 0.00 | 0.00 | 0.00 | 53 | 1008.3 |
| 20260505073122 | 57 | 45 | 3.5 | 9.6 | 0.00 | 0.00 | 0.00 | 52 | 1008.3 |
| 20260505072122 | 57 | 346 | 2.6 | 7.0 | 0.00 | 0.00 | 0.00 | 53 | 1008.2 |
| 20260505071122 | 57 | 13 | 1.7 | 3.5 | 0.00 | 0.00 | 0.00 | 52 | 1008.3 |
| 20260505070122 | 57 | 6 | 2.6 | 6.1 | 0.00 | 0.00 | 0.00 | 51 | 1008.4 |
| 20260505065122 | 57 | 192 | 0.9 | 4.3 | 0.00 | 0.00 | 0.00 | 50 | 1008.2 |
| 20260505064122 | 58 | 219 | 1.7 | 7.0 | 0.00 | 0.00 | 0.00 | 50 | 1008.0 |
| 20260505063122 | 59 | 234 | 3.5 | 13.9 | 0.00 | 0.00 | 0.00 | 48 | 1008.2 |
| 20260505062122 | 59 | 278 | 3.5 | 8.7 | 0.00 | 0.00 | 0.00 | 47 | 1008.0 |
| 20260505061122 | 59 | 227 | 1.7 | 7.0 | 0.00 | 0.00 | 0.00 | 45 | 1007.8 |